Location: Champs
(48.8539°N, 2.6040°E)
Time: 13:38:05
(UTC+00:00)

ERBS - Pass Details

Date: 26 October 2021
Orbit: 392 x 407 km, 57.0° (Epoch: 06 December)

Event Time Altitude Azimuth Distance (km) Brightness Sun altitude
Exits shadow 04:51:24 11° 200° (SSW) 1,364 4.6 -16.3°
Maximum altitude 04:54:08 34° 135° (SE) 692 3.8 -15.9°
Drops below altitude 10° 04:57:08 10° 69° (ENE) 1,469 6.1 -15.4°
Sets 04:59:20 0° 60° (ENE) 2,337 7.1 -15.0°
